Regional Weather Roundup
Issued by NWS Midland/Odessa, TX

Skip options and go directly to product.
Home | Oldest Version | Next Version | Current Version | All | Text Only | Save Text | Print | Product List | Glossary On

Skip product version selection by date and time.   
800
ASUS44 KMAF 041310
RWRMAF
MIDLAND AREA WEATHER ROUNDUP
NATIONAL WEATHER SERVICE MIDLAND TX
800 AM CDT WED MAY 04 2016

...IN SOUTHWEST TEXAS AND SOUTHEAST NEW MEXICO...

CITY           SKY/WX    TMP DP  RH WIND       PRES   REMARKS
ALPINE         CLEAR     51  40  67 CALM      30.32R
ANDREWS        FAIR      48  45  88 W7        30.22S
ARTESIA        CLEAR     48  32  53 NW6       30.27R
BIG SPRING     SUNNY     50  46  87 CALM      30.23R
CARLSBAD       CLEAR     50  36  58 CALM      30.24R
DRYDEN           N/A     62  48  60 N7        30.18R
FORT STOCKTON  SUNNY     59  49  69 S10       30.21R
GUAD PASS      CLEAR     58  34  40 NE20      30.29R
HOBBS          SUNNY     45  45 100 W8        30.25R
MARFA          CLEAR     51  41  68 N8        30.29R
MIDLAND AIRPK  MOSUNNY   54  46  74 NW5       30.22R
MIDLAND INTL   MOSUNNY   53  45  74 NW6       30.21R
ODESSA         MOSUNNY   53  44  71 NW6       30.22R
PECOS          SUNNY     51  42  69 CALM      30.23R
PRESIDIO       FAIR      65  44  47 N7        30.18R
SEMINOLE       SUNNY     48  44  85 NW8       30.24R
SNYDER           N/A     53  47  82 NW6       30.19R
WINK           SUNNY     49  42  77 N7        30.21R
$$
...OTHER STATIONS IN TEXAS...

CITY           SKY/WX    TMP DP  RH WIND       PRES   REMARKS
ABILENE        SUNNY     53  52  96 CALM      30.15R
AMARILLO       SUNNY     49  39  68 W9        30.22R
AUSTIN         SUNNY     56  52  86 CALM      30.11R
BROWNSVILLE    MOSUNNY   68  60  75 N8        30.06R
CORPUS CHRISTI MOSUNNY   61  53  75 NW7       30.08R
DALLAS FTW     SUNNY     62  53  72 W8        30.07R
DEL RIO        SUNNY     60  51  72 NE8       30.14R
EL PASO        CLEAR     61  35  37 E3        30.22R
HOUSTON INT    SUNNY     60  53  77 NW3       30.08R
LUBBOCK        SUNNY     46  40  79 W7        30.21R
SAN ANGELO     SUNNY     54  50  86 NW5       30.17R
SAN ANTONIO    SUNNY     57  51  80 NW5       30.12R
WACO           SUNNY     57  53  86 W3        30.10R
WICHITA FALLS  NOT AVBL
$$
...OTHER LOCATIONS IN NEW MEXICO...

CITY           SKY/WX    TMP DP  RH WIND       PRES   REMARKS
ALAMAGORDO     CLEAR     46  28  49 E5        30.25R
ALBUQUERQUE    CLEAR     51  30  44 N9        30.32R
CANNON AFB     SUNNY     50  34  55 NW9       30.25R
CLOVIS         SUNNY     46  34  61 NW10      30.26S
HOLLOMAN AFB   CLEAR     52  31  44 SE3       30.23R
ROSWELL        CLEAR     47  33  58 N5        30.26R
RUIDOSO          N/A     46  28  49 CALM      30.38R
SANTA FE       CLEAR     42  30  62 NE7       30.35R WCI  38
TRUTH OR CONSE CLEAR     50  27  40 W3        30.26R
TUCUMCARI      SUNNY     46  34  62 W5        30.25R
$$

USA.gov is the U.S. government's official web portal to all federal, state and local government web resources and services.